NORTHERN QUEENS  -  Heat Advisory Heat Advisory     Air Quality Alert Air Quality Alert        SOUTHERN QUEENS  -  Heat Advisory Heat Advisory     Air Quality Alert Air Quality Alert      

Active alerts

Northern Queens
  Details for Northern Queens Heat Advisory  +1 additional alert
Southern Queens
  Details for Southern Queens Heat Advisory  +1 additional alert


WXM80 ListenWXM80 Stop

You find our weather info also at:

UK Metoffice

WeatherCloud

Weather Underground

Northeastern Weather Network

AWEKAS

Citizen Weather Observer Program (CWOP)

HAMweather, WeatherForYou, PWS Weather


Weather Underground History page Text

Daily Summary for August 8, 2016 Units:  English    Metric   Both
« Previous Day
Next Day »
Daily Weekly Monthly Yearly Custom
  High: Low: Average:
Temperature: 87.0 °F 68.0 °F 76.9 °F
Dew Point: 68.5 °F 61.5 °F 64.9 °F
Humidity: 87 % 44 % 68 %
Wind Speed: 5.1 mph 0.0 mph 0.8 mph
Wind Gust: 8.1 mph - -
Wind:- - SE
Pressure: 30.08 in 29.91 in -
Precipitation: 0.00 in    
Historical Graphs
 
 
Tabular Data for August 8, 2016
Time Temperature Dew Point Pressure Wind Wind Speed Wind Gust Humidity Rainfall Rate (Hourly)
00:01 74.3 °F 64.7 °F 29.91 in Calm     72 % 0.00 in
00:06 74.2 °F 64.6 °F 29.91 in Calm     72 % 0.00 in
00:11 74.1 °F 64.9 °F 29.91 in Calm     73 % 0.00 in
00:16 74.0 °F 64.8 °F 29.91 in Calm     73 % 0.00 in
00:21 73.8 °F 65.0 °F 29.91 in Calm     74 % 0.00 in
00:26 73.7 °F 64.9 °F 29.91 in Calm     74 % 0.00 in
00:31 73.6 °F 64.4 °F 29.91 in Calm     73 % 0.00 in
00:36 73.5 °F 64.7 °F 29.91 in Calm     74 % 0.00 in
00:41 73.4 °F 64.6 °F 29.91 in Calm     74 % 0.00 in
00:46 73.3 °F 64.5 °F 29.92 in North 0.1 mph 1.0 mph 74 % 0.00 in
00:52 73.1 °F 63.5 °F 29.92 in WSW 1.3 mph 4.6 mph 72 % 0.00 in
00:57 73.0 °F 63.4 °F 29.92 in Calm   1.2 mph 72 % 0.00 in
01:02 73.0 °F 63.4 °F 29.92 in WSW 0.1 mph 1.2 mph 72 % 0.00 in
01:07 73.0 °F 63.4 °F 29.92 in Calm     72 % 0.00 in
01:12 73.0 °F 63.8 °F 29.92 in Calm     73 % 0.00 in
01:17 73.0 °F 63.8 °F 29.92 in Calm     73 % 0.00 in
01:22 72.9 °F 64.1 °F 29.92 in Calm     74 % 0.00 in
01:27 72.7 °F 64.3 °F 29.92 in Calm     75 % 0.00 in
01:32 72.6 °F 64.6 °F 29.93 in Calm     76 % 0.00 in
01:37 72.4 °F 64.4 °F 29.92 in Calm     76 % 0.00 in
01:43 72.2 °F 64.2 °F 29.93 in Calm     76 % 0.00 in
01:48 72.0 °F 64.4 °F 29.93 in Calm     77 % 0.00 in
01:53 71.9 °F 64.3 °F 29.93 in Calm     77 % 0.00 in
01:58 71.7 °F 64.1 °F 29.92 in Calm     77 % 0.00 in
02:03 71.5 °F 64.3 °F 29.93 in Calm     78 % 0.00 in
02:08 71.3 °F 64.4 °F 29.92 in Calm     79 % 0.00 in
02:13 71.2 °F 64.4 °F 29.92 in Calm     79 % 0.00 in
02:18 71.0 °F 64.5 °F 29.93 in Calm     80 % 0.00 in
02:23 70.9 °F 64.4 °F 29.93 in Calm     80 % 0.00 in
02:29 70.7 °F 64.2 °F 29.93 in Calm     80 % 0.00 in
02:34 70.6 °F 64.5 °F 29.93 in Calm     81 % 0.00 in
02:39 70.5 °F 64.4 °F 29.93 in Calm     81 % 0.00 in
02:44 70.4 °F 64.6 °F 29.93 in Calm     82 % 0.00 in
02:49 70.2 °F 64.4 °F 29.92 in Calm     82 % 0.00 in
02:54 70.1 °F 64.3 °F 29.92 in Calm   1.2 mph 82 % 0.00 in
02:59 69.9 °F 64.2 °F 29.93 in Calm   1.2 mph 82 % 0.00 in
03:04 69.8 °F 64.4 °F 29.93 in Calm     83 % 0.00 in
03:09 69.7 °F 64.3 °F 29.93 in Calm     83 % 0.00 in
03:14 69.6 °F 64.5 °F 29.93 in NNE 0.1 mph 1.2 mph 84 % 0.00 in
03:20 69.5 °F 64.1 °F 29.93 in Calm     83 % 0.00 in
03:25 69.5 °F 64.5 °F 29.93 in Calm     84 % 0.00 in
03:30 69.4 °F 64.4 °F 29.93 in Calm   1.2 mph 84 % 0.00 in
03:35 69.3 °F 64.3 °F 29.94 in Calm   1.2 mph 84 % 0.00 in
03:40 69.2 °F 63.8 °F 29.94 in Calm     83 % 0.00 in
03:45 69.2 °F 63.8 °F 29.94 in North 2.2 mph 3.5 mph 83 % 0.00 in
03:50 69.3 °F 63.9 °F 29.94 in NNE 0.8 mph 3.0 mph 83 % 0.00 in
03:55 69.4 °F 63.7 °F 29.94 in North 0.4 mph 2.0 mph 82 % 0.00 in
04:00 69.5 °F 63.4 °F 29.94 in North 0.1 mph   81 % 0.00 in
04:05 69.7 °F 63.6 °F 29.94 in North 1.2 mph 2.0 mph 81 % 0.00 in
04:11 69.9 °F 63.8 °F 29.95 in NW 1.0 mph 3.0 mph 81 % 0.00 in
04:16 70.1 °F 64.0 °F 29.95 in Calm   3.0 mph 81 % 0.00 in
04:21 70.2 °F 64.1 °F 29.95 in Calm   1.0 mph 81 % 0.00 in
04:26 70.3 °F 64.2 °F 29.95 in WNW 1.0 mph 2.0 mph 81 % 0.00 in
04:31 70.3 °F 64.2 °F 29.95 in Calm   1.0 mph 81 % 0.00 in
04:36 70.4 °F 64.3 °F 29.95 in Calm   2.0 mph 81 % 0.00 in
04:41 70.4 °F 64.3 °F 29.95 in Calm   2.0 mph 81 % 0.00 in
04:46 70.3 °F 64.2 °F 29.95 in NW 1.0 mph 3.0 mph 81 % 0.00 in
04:51 70.3 °F 64.2 °F 29.96 in Calm   1.0 mph 81 % 0.00 in
04:56 70.2 °F 64.1 °F 29.96 in Calm   1.0 mph 81 % 0.00 in
05:01 70.1 °F 64.0 °F 29.96 in Calm     81 % 0.00 in
05:06 69.9 °F 63.8 °F 29.97 in Calm     81 % 0.00 in
05:11 69.8 °F 63.7 °F 29.97 in Calm     81 % 0.00 in
05:16 69.6 °F 63.5 °F 29.98 in Calm     81 % 0.00 in
05:21 69.4 °F 63.3 °F 29.98 in Calm     81 % 0.00 in
05:26 69.2 °F 63.5 °F 29.98 in NNW 0.1 mph   82 % 0.00 in
05:31 69.0 °F 63.6 °F 29.98 in NNW 0.1 mph 1.2 mph 83 % 0.00 in
05:36 68.8 °F 63.4 °F 29.98 in Calm   1.2 mph 83 % 0.00 in
05:41 68.6 °F 63.2 °F 29.98 in NNW 0.1 mph   83 % 0.00 in
05:47 68.5 °F 63.5 °F 29.98 in Calm     84 % 0.00 in
05:52 68.4 °F 63.0 °F 29.98 in Calm     83 % 0.00 in
05:57 68.3 °F 62.9 °F 29.98 in NNW 0.3 mph 2.0 mph 83 % 0.00 in
06:02 68.1 °F 63.1 °F 29.98 in NNW 0.1 mph 2.3 mph 84 % 0.00 in
06:07 68.1 °F 62.7 °F 29.99 in WNW 0.8 mph 3.5 mph 83 % 0.00 in
06:12 68.0 °F 62.6 °F 29.99 in Calm     83 % 0.00 in
06:22 68.0 °F 63.0 °F 29.99 in Calm     84 % 0.00 in
06:27 68.0 °F 63.0 °F 29.99 in WNW 0.1 mph 1.0 mph 84 % 0.00 in
06:32 68.0 °F 63.0 °F 29.99 in Calm     84 % 0.00 in
06:38 68.0 °F 63.0 °F 29.99 in Calm     84 % 0.00 in
06:48 68.2 °F 64.2 °F 30.00 in Calm     87 % 0.00 in
06:53 68.2 °F 63.9 °F 30.00 in Calm     86 % 0.00 in
06:58 68.2 °F 63.5 °F 30.00 in Calm     85 % 0.00 in
07:03 68.3 °F 63.6 °F 30.00 in Calm   1.2 mph 85 % 0.00 in
07:08 68.5 °F 63.5 °F 30.00 in WNW 0.4 mph 1.2 mph 84 % 0.00 in
07:13 68.7 °F 63.3 °F 30.00 in Calm     83 % 0.00 in
07:18 69.1 °F 63.7 °F 30.00 in Calm     83 % 0.00 in
07:23 69.6 °F 63.9 °F 30.00 in Calm     82 % 0.00 in
07:29 70.1 °F 64.0 °F 30.00 in Calm   1.2 mph 81 % 0.00 in
07:34 70.6 °F 64.1 °F 30.01 in WNW 0.7 mph 1.2 mph 80 % 0.00 in
07:39 71.0 °F 64.5 °F 30.01 in WNW 0.7 mph 2.3 mph 80 % 0.00 in
07:44 71.3 °F 64.4 °F 30.01 in Calm   1.2 mph 79 % 0.00 in
07:49 71.7 °F 64.5 °F 30.01 in WNW 0.3 mph 1.2 mph 78 % 0.00 in
07:54 71.8 °F 64.2 °F 30.01 in WNW 0.3 mph 3.5 mph 77 % 0.00 in
07:59 72.0 °F 64.0 °F 30.01 in NNW 1.4 mph 3.5 mph 76 % 0.00 in
08:04 72.2 °F 64.2 °F 30.01 in NE 1.5 mph 4.0 mph 76 % 0.00 in
08:09 72.4 °F 64.4 °F 30.01 in NNE 3.3 mph 4.0 mph 76 % 0.00 in
08:14 72.5 °F 64.1 °F 30.02 in NNE 1.2 mph 4.0 mph 75 % 0.00 in
08:20 72.6 °F 64.6 °F 30.01 in NNE 3.4 mph 4.0 mph 76 % 0.00 in
08:30 72.7 °F 64.3 °F 30.02 in NNW 3.1 mph 4.6 mph 75 % 0.00 in
08:35 72.8 °F 64.0 °F 30.02 in NNW 2.7 mph 5.8 mph 74 % 0.00 in
08:40 72.9 °F 63.7 °F 30.02 in NNW 1.0 mph 3.5 mph 73 % 0.00 in
08:45 73.0 °F 64.2 °F 30.02 in NNW 2.3 mph 3.5 mph 74 % 0.00 in
08:50 73.1 °F 63.5 °F 30.02 in NNE 2.8 mph 5.8 mph 72 % 0.00 in
08:55 73.2 °F 64.0 °F 30.02 in North 4.2 mph 6.9 mph 73 % 0.00 in
09:00 73.3 °F 64.1 °F 30.02 in North 3.3 mph 4.6 mph 73 % 0.00 in
09:05 73.5 °F 64.3 °F 30.02 in NNE 0.5 mph 4.6 mph 73 % 0.00 in
09:10 73.7 °F 64.9 °F 30.02 in ENE 1.6 mph 3.5 mph 74 % 0.00 in
09:15 73.9 °F 64.7 °F 30.02 in NE 1.7 mph 3.5 mph 73 % 0.00 in
09:20 74.0 °F 64.8 °F 30.02 in NNE 2.5 mph 5.8 mph 73 % 0.00 in
09:26 74.0 °F 64.4 °F 30.03 in North 3.0 mph 7.0 mph 72 % 0.00 in
09:31 74.1 °F 64.9 °F 30.03 in ENE 2.8 mph 3.5 mph 73 % 0.00 in
09:36 74.1 °F 64.9 °F 30.02 in NNE 2.0 mph 5.0 mph 73 % 0.00 in
09:41 74.3 °F 65.1 °F 30.02 in NNE 3.0 mph 6.0 mph 73 % 0.00 in
09:46 74.4 °F 65.6 °F 30.03 in NE 1.6 mph 4.0 mph 74 % 0.00 in
09:51 74.7 °F 65.5 °F 30.03 in NE 1.0 mph 5.0 mph 73 % 0.00 in
09:56 75.0 °F 65.8 °F 30.03 in NNE 3.0 mph 6.0 mph 73 % 0.00 in
10:01 75.7 °F 66.0 °F 30.03 in North 3.0 mph 6.9 mph 72 % 0.00 in
10:06 76.3 °F 67.0 °F 30.03 in NNE 2.0 mph 7.0 mph 73 % 0.00 in
10:11 77.2 °F 66.2 °F 30.03 in NE 3.0 mph 6.0 mph 69 % 0.00 in
10:16 78.2 °F 66.8 °F 30.04 in NE 2.4 mph 4.0 mph 68 % 0.00 in
10:21 78.8 °F 66.5 °F 30.04 in NE 3.0 mph 8.0 mph 66 % 0.00 in
10:26 79.6 °F 67.2 °F 30.04 in NE 2.0 mph 5.0 mph 66 % 0.00 in
10:31 80.2 °F 67.8 °F 30.04 in NE 1.6 mph 4.6 mph 66 % 0.00 in
10:36 80.9 °F 65.2 °F 30.04 in ENE 3.0 mph 6.0 mph 59 % 0.00 in
10:41 81.4 °F 66.6 °F 30.04 in ENE 2.0 mph 7.0 mph 61 % 0.00 in
10:46 82.3 °F 66.0 °F 30.04 in NNE 1.9 mph 6.0 mph 58 % 0.00 in
10:51 82.7 °F 64.3 °F 30.04 in NE 2.0 mph 5.0 mph 54 % 0.00 in
10:56 83.1 °F 65.8 °F 30.04 in ENE 2.0 mph 4.0 mph 56 % 0.00 in
11:01 83.5 °F 66.7 °F 30.04 in NE 0.9 mph 3.5 mph 57 % 0.00 in
11:06 83.8 °F 65.4 °F 30.04 in NE 3.0 mph 7.0 mph 54 % 0.00 in
11:11 84.1 °F 66.2 °F 30.04 in NE 2.0 mph 7.0 mph 55 % 0.00 in
11:16 84.3 °F 65.8 °F 30.04 in NE 2.5 mph 3.5 mph 54 % 0.00 in
11:21 84.3 °F 65.8 °F 30.04 in ENE 2.0 mph 5.0 mph 54 % 0.00 in
11:26 84.4 °F 67.5 °F 30.05 in NE 1.0 mph 4.0 mph 57 % 0.00 in
11:31 84.7 °F 67.3 °F 30.05 in NNW 2.7 mph 5.0 mph 56 % 0.00 in
11:36 84.8 °F 67.4 °F 30.04 in NE 1.0 mph 5.0 mph 56 % 0.00 in
11:41 85.1 °F 66.6 °F 30.04 in NE 2.0 mph 7.0 mph 54 % 0.00 in
11:46 85.3 °F 67.8 °F 30.04 in NNE 1.0 mph 4.0 mph 56 % 0.00 in
11:51 85.5 °F 68.5 °F 30.04 in NNE 1.0 mph 4.0 mph 57 % 0.00 in
11:56 85.8 °F 67.8 °F 30.04 in NNE 2.0 mph 6.0 mph 55 % 0.00 in
12:01 85.8 °F 68.3 °F 30.04 in NNE 1.9 mph 3.0 mph 56 % 0.00 in
12:06 85.6 °F 66.5 °F 30.03 in NE 2.0 mph 6.0 mph 53 % 0.00 in
12:11 85.5 °F 67.5 °F 30.03 in North 3.0 mph 6.0 mph 55 % 0.00 in
12:16 85.6 °F 67.6 °F 30.03 in North 1.0 mph 6.0 mph 55 % 0.00 in
12:21 85.6 °F 68.1 °F 30.03 in North 1.0 mph 4.0 mph 56 % 0.00 in
12:26 85.4 °F 67.9 °F 30.03 in NNE 1.0 mph 3.0 mph 56 % 0.00 in
12:31 85.4 °F 67.4 °F 30.03 in NE 1.0 mph 3.0 mph 55 % 0.00 in
12:36 85.1 °F 66.6 °F 30.03 in Calm   3.0 mph 54 % 0.00 in
12:41 84.9 °F 66.9 °F 30.03 in NNE 2.0 mph 4.0 mph 55 % 0.00 in
12:46 84.9 °F 66.4 °F 30.03 in NE 1.0 mph 3.0 mph 54 % 0.00 in
12:50 84.9 °F 65.9 °F 30.03 in NE 1.8 mph 3.5 mph 53 % 0.00 in
12:56 84.6 °F 66.6 °F 30.02 in NE 1.0 mph 3.0 mph 55 % 0.00 in
13:01 83.9 °F 67.0 °F 30.03 in North 1.3 mph 2.3 mph 57 % 0.00 in
13:06 83.2 °F 67.4 °F 30.03 in NE 1.6 mph 3.5 mph 59 % 0.00 in
13:11 82.6 °F 67.8 °F 30.03 in NE 1.3 mph 2.3 mph 61 % 0.00 in
13:16 82.5 °F 66.2 °F 30.03 in NE 0.7 mph 2.3 mph 58 % 0.00 in
13:21 82.3 °F 66.5 °F 30.03 in NE 0.2 mph 1.2 mph 59 % 0.00 in
13:26 82.1 °F 66.4 °F 30.03 in NE 0.7 mph 1.2 mph 59 % 0.00 in
13:31 81.9 °F 66.2 °F 30.02 in NE 0.5 mph 2.3 mph 59 % 0.00 in
13:36 81.9 °F 66.2 °F 30.02 in NE 0.8 mph 2.3 mph 59 % 0.00 in
13:41 81.9 °F 65.7 °F 30.02 in NE 0.2 mph 1.2 mph 58 % 0.00 in
13:46 82.6 °F 66.8 °F 30.02 in NE 1.3 mph 2.3 mph 59 % 0.00 in
13:52 83.2 °F 65.9 °F 30.02 in NE 1.0 mph 2.3 mph 56 % 0.00 in
13:57 83.5 °F 65.6 °F 30.02 in NE 0.1 mph 1.0 mph 55 % 0.00 in
14:02 83.8 °F 63.7 °F 30.02 in NE 0.4 mph 2.3 mph 51 % 0.00 in
14:07 84.2 °F 64.7 °F 30.02 in Calm     52 % 0.00 in
14:12 84.5 °F 63.2 °F 30.02 in Calm   1.0 mph 49 % 0.00 in
14:17 84.7 °F 63.4 °F 30.02 in NE 0.2 mph 1.2 mph 49 % 0.00 in
14:22 84.9 °F 64.8 °F 30.02 in NE 0.7 mph 2.3 mph 51 % 0.00 in
14:27 85.2 °F 63.9 °F 30.02 in North 0.9 mph 3.5 mph 49 % 0.00 in
14:32 85.3 °F 63.4 °F 30.01 in NNE 1.0 mph 2.3 mph 48 % 0.00 in
14:37 85.2 °F 64.5 °F 30.01 in NNE 1.4 mph 2.0 mph 50 % 0.00 in
14:43 85.1 °F 63.2 °F 30.01 in NE 0.9 mph 2.3 mph 48 % 0.00 in
14:48 84.8 °F 64.1 °F 30.01 in NE 1.1 mph 3.5 mph 50 % 0.00 in
14:53 84.7 °F 62.2 °F 30.01 in NE 0.3 mph 1.2 mph 47 % 0.00 in
14:58 84.7 °F 62.8 °F 30.01 in Calm     48 % 0.00 in
15:03 84.8 °F 61.7 °F 30.01 in Calm     46 % 0.00 in
15:08 85.0 °F 62.5 °F 30.01 in Calm     47 % 0.00 in
15:13 85.2 °F 61.5 °F 30.01 in Calm     45 % 0.00 in
15:18 85.4 °F 62.3 °F 30.00 in ENE 1.4 mph 2.3 mph 46 % 0.00 in
15:23 85.6 °F 62.4 °F 30.00 in NNE 1.7 mph 3.5 mph 46 % 0.00 in
15:28 85.6 °F 63.7 °F 30.01 in NNE 1.0 mph 3.5 mph 48 % 0.00 in
15:34 85.9 °F 63.9 °F 30.00 in North 1.3 mph 3.5 mph 48 % 0.00 in
15:39 86.1 °F 61.6 °F 30.00 in ENE 1.2 mph 3.5 mph 44 % 0.00 in
15:44 86.3 °F 63.7 °F 30.01 in NNE 1.2 mph 2.3 mph 47 % 0.00 in
15:49 86.6 °F 62.7 °F 30.01 in NNE 1.2 mph 3.5 mph 45 % 0.00 in
15:54 86.6 °F 62.1 °F 30.01 in North 3.4 mph 4.6 mph 44 % 0.00 in
15:59 86.6 °F 63.4 °F 30.01 in North 0.4 mph 1.0 mph 46 % 0.00 in
16:04 86.7 °F 63.4 °F 30.01 in North 0.4 mph 1.2 mph 46 % 0.00 in
16:09 86.7 °F 62.8 °F 30.01 in North 0.2 mph 1.2 mph 45 % 0.00 in
16:14 86.6 °F 63.4 °F 30.00 in Calm   1.2 mph 46 % 0.00 in
16:19 86.6 °F 65.2 °F 30.01 in NNE 0.2 mph 1.2 mph 49 % 0.00 in
16:25 86.7 °F 64.7 °F 30.00 in ESE 0.1 mph 2.3 mph 48 % 0.00 in
16:30 86.8 °F 64.2 °F 30.00 in West 0.5 mph 2.3 mph 47 % 0.00 in
16:35 87.0 °F 64.9 °F 30.00 in SW 0.1 mph 2.3 mph 48 % 0.00 in
16:40 86.9 °F 64.8 °F 30.00 in North 0.5 mph 2.3 mph 48 % 0.00 in
16:45 86.5 °F 63.9 °F 30.00 in Calm   1.2 mph 47 % 0.00 in
16:50 86.6 °F 64.6 °F 30.00 in NW 1.6 mph 3.5 mph 48 % 0.00 in
16:55 86.5 °F 63.3 °F 30.00 in WNW 2.3 mph 3.5 mph 46 % 0.00 in
17:00 86.5 °F 65.1 °F 30.01 in WNW 1.1 mph 3.5 mph 49 % 0.00 in
17:03 86.4 °F 63.8 °F 30.01 in WNW 0.9 mph 3.5 mph 47 % 0.00 in
17:08 86.5 °F 63.9 °F 30.01 in WSW 0.1 mph 1.2 mph 47 % 0.00 in
17:13 86.4 °F 63.2 °F 30.00 in WSW 0.8 mph 2.3 mph 46 % 0.00 in
17:18 86.3 °F 63.1 °F 30.00 in WSW 0.8 mph 2.3 mph 46 % 0.00 in
17:23 86.3 °F 64.3 °F 30.01 in WSW 1.4 mph 3.5 mph 48 % 0.00 in
17:28 86.1 °F 63.5 °F 30.01 in SW 1.6 mph 2.3 mph 47 % 0.00 in
17:34 86.1 °F 68.0 °F 30.01 in SE 2.2 mph 5.8 mph 55 % 0.00 in
17:44 84.8 °F 67.9 °F 30.01 in SSE 2.0 mph 3.5 mph 57 % 0.00 in
17:49 84.3 °F 68.4 °F 30.01 in SW 0.8 mph 2.3 mph 59 % 0.00 in
17:54 83.9 °F 68.5 °F 30.01 in ESE 0.9 mph 2.0 mph 60 % 0.00 in
17:59 83.3 °F 68.0 °F 30.00 in SSE 0.5 mph 2.0 mph 60 % 0.00 in
18:04 82.9 °F 68.1 °F 30.01 in SE 0.3 mph 2.3 mph 61 % 0.00 in
18:09 82.5 °F 68.2 °F 30.01 in SSE 0.6 mph 2.3 mph 62 % 0.00 in
18:14 82.0 °F 68.2 °F 30.00 in SE 0.4 mph 2.3 mph 63 % 0.00 in
18:19 81.9 °F 68.5 °F 30.00 in SW 1.1 mph 1.2 mph 64 % 0.00 in
18:25 81.7 °F 68.3 °F 30.00 in SE 3.5 mph 8.1 mph 64 % 0.00 in
18:30 81.3 °F 68.0 °F 30.00 in SE 5.1 mph 8.1 mph 64 % 0.00 in
18:35 81.0 °F 68.1 °F 30.00 in SE 2.4 mph 5.8 mph 65 % 0.00 in
18:40 80.9 °F 68.0 °F 30.00 in SSE 0.8 mph 3.5 mph 65 % 0.00 in
18:45 80.7 °F 67.4 °F 30.00 in SE 2.1 mph 7.0 mph 64 % 0.00 in
18:50 80.6 °F 67.3 °F 30.00 in SSE 2.2 mph 4.6 mph 64 % 0.00 in
18:55 80.5 °F 66.7 °F 30.00 in SE 1.3 mph 5.8 mph 63 % 0.00 in
19:00 80.4 °F 66.2 °F 30.00 in SSE 0.7 mph 3.5 mph 62 % 0.00 in
19:05 80.3 °F 66.1 °F 30.00 in WSW 0.4 mph 2.3 mph 62 % 0.00 in
19:10 80.2 °F 65.5 °F 30.00 in SW 0.1 mph 1.2 mph 61 % 0.00 in
19:16 80.1 °F 65.9 °F 30.00 in Calm   2.0 mph 62 % 0.00 in
19:21 80.0 °F 65.8 °F 30.01 in Calm   2.0 mph 62 % 0.00 in
19:26 80.0 °F 65.8 °F 30.01 in Calm   1.0 mph 62 % 0.00 in
19:31 79.9 °F 65.7 °F 30.01 in SSW 1.0 mph 2.0 mph 62 % 0.00 in
19:36 79.7 °F 65.1 °F 30.01 in Calm   1.0 mph 61 % 0.00 in
19:41 79.5 °F 64.9 °F 30.01 in Calm     61 % 0.00 in
19:46 79.3 °F 65.2 °F 30.01 in Calm   1.0 mph 62 % 0.00 in
19:51 79.1 °F 65.4 °F 30.01 in Calm     63 % 0.00 in
19:56 78.9 °F 65.2 °F 30.01 in Calm   1.0 mph 63 % 0.00 in
20:01 78.7 °F 65.5 °F 30.01 in Calm     64 % 0.00 in
20:06 78.4 °F 65.2 °F 30.02 in Calm     64 % 0.00 in
20:11 78.1 °F 64.9 °F 30.02 in Calm   1.2 mph 64 % 0.00 in
20:16 77.9 °F 65.2 °F 30.02 in Calm   1.2 mph 65 % 0.00 in
20:21 77.7 °F 65.4 °F 30.02 in SSW 0.1 mph 1.2 mph 66 % 0.00 in
20:26 77.5 °F 65.7 °F 30.02 in SSW 0.2 mph 1.2 mph 67 % 0.00 in
20:31 77.2 °F 66.2 °F 30.03 in Calm     69 % 0.00 in
20:36 77.0 °F 66.0 °F 30.03 in Calm   1.2 mph 69 % 0.00 in
20:41 76.8 °F 66.3 °F 30.03 in Calm   1.2 mph 70 % 0.00 in
20:47 76.5 °F 66.8 °F 30.03 in Calm     72 % 0.00 in
20:52 76.2 °F 66.9 °F 30.03 in Calm   1.2 mph 73 % 0.00 in
20:57 76.0 °F 66.7 °F 30.03 in Calm     73 % 0.00 in
21:02 75.7 °F 66.8 °F 30.04 in Calm   1.2 mph 74 % 0.00 in
21:07 75.5 °F 66.6 °F 30.04 in SSE 0.2 mph 1.2 mph 74 % 0.00 in
21:12 75.4 °F 66.9 °F 30.04 in SSE 0.1 mph 1.2 mph 75 % 0.00 in
21:17 75.2 °F 66.7 °F 30.04 in SSE 0.5 mph 3.5 mph 75 % 0.00 in
21:22 75.1 °F 66.6 °F 30.04 in SSE 0.1 mph 2.3 mph 75 % 0.00 in
21:27 75.0 °F 66.5 °F 30.04 in SSE 0.2 mph 1.2 mph 75 % 0.00 in
21:32 74.9 °F 66.4 °F 30.04 in WSW 0.2 mph 1.2 mph 75 % 0.00 in
21:38 74.7 °F 66.6 °F 30.04 in WSW 0.1 mph 1.2 mph 76 % 0.00 in
21:43 74.5 °F 66.4 °F 30.05 in Calm   1.2 mph 76 % 0.00 in
21:48 74.4 °F 66.3 °F 30.05 in WSW 0.1 mph 1.2 mph 76 % 0.00 in
21:53 74.2 °F 66.1 °F 30.05 in WSW 0.3 mph 1.2 mph 76 % 0.00 in
21:58 74.0 °F 66.0 °F 30.05 in WSW 0.2 mph 2.3 mph 76 % 0.00 in
22:03 73.8 °F 65.8 °F 30.06 in WSW 0.6 mph 2.3 mph 76 % 0.00 in
22:08 73.7 °F 65.7 °F 30.06 in WSW 0.3 mph 2.3 mph 76 % 0.00 in
22:13 73.5 °F 65.1 °F 30.06 in WSW 0.4 mph 2.3 mph 75 % 0.00 in
22:18 73.3 °F 64.5 °F 30.06 in WSW 0.3 mph 1.2 mph 74 % 0.00 in
22:23 73.1 °F 63.9 °F 30.06 in WSW 1.0 mph 1.2 mph 73 % 0.00 in
22:29 72.9 °F 62.9 °F 30.07 in SW 0.4 mph 2.3 mph 71 % 0.00 in
22:34 72.8 °F 63.2 °F 30.06 in SW 0.9 mph 2.3 mph 72 % 0.00 in
22:39 72.6 °F 63.1 °F 30.07 in SW 0.3 mph 1.2 mph 72 % 0.00 in
22:44 72.6 °F 63.1 °F 30.07 in SSW 1.0 mph 2.3 mph 72 % 0.00 in
22:49 72.5 °F 63.0 °F 30.07 in SSW 1.1 mph 2.3 mph 72 % 0.00 in
22:54 72.4 °F 62.9 °F 30.07 in South 0.5 mph 2.3 mph 72 % 0.00 in
22:59 72.4 °F 62.9 °F 30.07 in SW 0.9 mph 3.5 mph 72 % 0.00 in
23:04 72.4 °F 62.9 °F 30.08 in SSW 1.5 mph 3.5 mph 72 % 0.00 in
23:09 72.4 °F 63.6 °F 30.08 in SSW 1.2 mph 2.3 mph 74 % 0.00 in
23:14 72.5 °F 64.5 °F 30.07 in West 1.1 mph 3.0 mph 76 % 0.00 in
23:20 72.5 °F 64.5 °F 30.08 in SW 0.6 mph 3.5 mph 76 % 0.00 in
23:25 72.5 °F 64.5 °F 30.08 in SW 1.1 mph 2.0 mph 76 % 0.00 in
23:30 72.6 °F 64.6 °F 30.08 in WSW 1.0 mph 3.5 mph 76 % 0.00 in
23:35 72.5 °F 64.5 °F 30.08 in WSW 1.3 mph 3.5 mph 76 % 0.00 in
23:40 72.6 °F 65.0 °F 30.08 in WSW 1.6 mph 3.5 mph 77 % 0.00 in
23:45 72.6 °F 65.3 °F 30.08 in Calm   1.2 mph 78 % 0.00 in
23:50 72.5 °F 65.2 °F 30.08 in Calm     78 % 0.00 in
23:55 72.5 °F 65.2 °F 30.08 in SSW 0.5 mph 2.0 mph 78 % 0.00 in
Crab Meadow Weather
Compliments of Weather Underground - 3 mb

Script developed by  Jim McMurry - jmcmurry@mwt.net Adapted for the template by  Wim van der Kuil - Leuven-Template.eu

Weather Terms: Wind Chill Warning - Extreme wind chills of -30°F or colder.